STARLINK-36050

Last updated on Wed Dec 31 2025 00:02:06 GMT+0000 (Coordinated Universal Time)

1 66602U 25270Q 25364.62354539 .00071988 00000+0 17152-2 0 9993 2 66602 43.0028 89.6467 0002264 270.8596 89.2001 15.40683613 7004
UTC large
Height (km)
Speed (km/s)
/
Latitude / Longitude
Inclination (degrees)
Orbital Period (minutes)
Azimuth
Elevation
Range (km)
Doppler Factor

Next 0 passes for location: London (51.5072 / 0.1276)

Sorry there are no passes over London.